Home   Weather   Johor Bahru   Past weeks

Flag for Malaysia Past Weather in Johor Bahru, Malaysia — Yesterday and Last 2 Weeks

Now
90 °F

Partly sunny.


Feels Like: 98 °F
Forecast: 80 / 87 °F
Wind: 12 mph from Southwest

Location: Singapore / Paya Lebar

Current Time: Jul 24, 2017 at 2:59:55 pm

Latest Report: Jul 24, 2017 at 2:00 pm


Visibility: N/A

Pressure: 29.77 "Hg

Humidity: 59%

Dew Point: 73 °F

Location of Johor BahruLocation

Past Weather in Johor Bahru — Graph

°F

Johor Bahru Temperature Yesterday

Maximum temperature yesterday: 91 °F (at 5:00 pm)
Minimum temperature yesterday: 82 °F (at 5:00 am)
Average temperature yesterday: 86 °F

High & Low Weather Summary for the Past Weeks

 TemperatureHumidityPressure
High91 °F (Jul 10, 2:00 pm)100% (Jul 11, 7:00 am)29.89 "Hg (Jul 11, 7:00 am)
Low75 °F (Jul 12, 6:00 am)52% (Jul 10, 4:00 pm)29.74 "Hg (Jul 10, 4:00 pm)
Average84 °F76%29.82 "Hg
* Reported Jul 9 1:00 pm — Jul 24 1:00 pm, Johor Bahru. Weather by CustomWeather, © 2017

Note: Actual official high and low records may vary slightly from our data, if they occured in-between our weather recording intervals... More about our weather records

Advertising

Johor Bahru Weather History for the Previous 24 Hours

Scroll right to see more
 ConditionsComfort  
Time TempWeatherWind HumidityBarometerVisibility
1:00 pm
Mon, Jul 24
90 °FBroken clouds.10 mph63%29.80 "HgN/A
12:00 pm88 °FBroken clouds.12 mph66%29.83 "HgN/A
11:00 am86 °FBroken clouds.9 mph70%29.83 "HgN/A
10:00 am86 °FBroken clouds.9 mph70%29.83 "HgN/A
9:00 am84 °FPartly sunny.9 mph79%29.83 "HgN/A
8:00 am82 °FPartly sunny.7 mph84%29.80 "HgN/A
7:00 am82 °FPassing clouds.6 mph84%29.80 "HgN/A
6:00 am82 °FPassing clouds.6 mph84%29.80 "HgN/A
5:00 am82 °FPassing clouds.8 mph84%29.80 "HgN/A
11:00 pm
Sun, Jul 23
84 °FPassing clouds.6 mph79%29.83 "HgN/A
10:00 pm84 °FPassing clouds.8 mph79%29.83 "HgN/A
9:00 pm86 °FPassing clouds.9 mph75%29.80 "HgN/A
8:00 pm86 °FPassing clouds.7 mph70%29.77 "HgN/A
7:00 pm88 °FPartly sunny.7 mph66%29.77 "HgN/A
6:00 pm90 °FPartly sunny.10 mph59%29.74 "HgN/A
5:00 pm91 °FPartly sunny.12 mph56%29.74 "HgN/A
4:00 pm90 °FBroken clouds.10 mph63%29.77 "HgN/A
3:00 pm90 °FBroken clouds.8 mph63%29.77 "HgN/A
2:00 pm90 °FPartly sunny.10 mph63%29.80 "HgN/A
Weather by CustomWeather, © 2017

See weather overviewHow to use our weather pages